闪电 1-86星 (MOLNIYA 1-86)

导读

MOLNIYA 1-86(闪电1-86),是苏联解体后独立国家联合体(CIS)继承苏联航天计划,于1993年5月26日发射的第一代闪电号通信卫星。作为苏联/俄罗斯历史悠久的闪电卫星系列成员,该卫星运行在高椭圆闪电轨道,承担军事与政府通信任务,可支持电视转播、电话电报等通信服务,继承了闪电系列高纬度地区通信优势,是独联体早期航天活动的代表之一。

基本信息
目录编号:
22671
目录名称:
MOLNIYA 1-86
国际标识:
1993-035A
轨道中心:
EARTH
卫星名称:
闪电 1-86星
卫星全名:
闪电 1-86星 (MOLNIYA 1-86)
卫星状态:
在轨 (已飞行12115 天)
发射日期:
1993-05-26 UTC
国别 :
俄罗斯(独联体) (CIS)
星等 :
--
轨道信息
数据来源 国际轨道数据 AOE轨道数据
星历时间 2026-07-27T20:01:53+0800
10小时前
查看轨道信息
2026-07-27T05:00:00+0800
1天前
查看轨道信息
半长轴 13302.28km 13302.41km
偏心率 0.4942077 0.4942007
轨道倾角 62.921° 62.922°
近地点辐角 35.003° 34.984°
升交点赤经 71.435° 71.816°
平近点角 349.352° 153.475°
近地点 350.053km 350.212km
远地点 13498.233km 13498.334km
周期 254.477分钟 254.481分钟
每日圈数 5.658661 5.658578
详细信息
平衡模式:
三轴稳定
覆盖范围:
全球
运营商:
俄罗斯国家航天集团
运营商所在国:
俄罗斯
制造商(研发单位):
普里克拉德诺伊·梅哈尼基设计局
制造商所在国:
俄罗斯联邦
使用方式:
暂无
卫星简介
闪电(Molniya (Satellite))系列卫星是苏联/俄罗斯于1965年至2004年间发射的军事和通信卫星。这些卫星使用高度偏心的椭圆轨道,称为Molniya轨道(即闪电轨道),在高纬度地区具有较长的停留时间。该卫星状态未知。
2D轨道图
3D轨道图
轨道高度分析图
轨道倾角分析图
轨道综合分析图
查看轨道综合分析图